| time (UTC) | temp C | wind direction | speed KPH | gust KPH | rain 1hr cm | rain 24hr cm | rain mn cm | humidity % | barometer mb |
| 20260507091549 | 2 | 253 | 0.0 | 3.2 | 0.00 | 0.53 | 0.00 | 93 | 1011.3 |
| 20260507091003 | 2 | 99 | 1.6 | 1.6 | 0.00 | 0.53 | 0.00 | 93 | 1010.4 |
| 20260507090055 | 2 | 178 | 0.0 | 1.6 | 0.00 | 0.53 | 0.00 | 93 | 1011.4 |
| 20260507084603 | 2 | 135 | 0.0 | 1.6 | 0.00 | 0.69 | 0.00 | 93 | 1011.4 |
| 20260507083045 | 3 | 0 | 0.0 | 1.6 | 0.00 | 0.69 | 0.00 | 92 | 1011.5 |
| 20260507081550 | 3 | 314 | 0.0 | 1.6 | 0.00 | 0.69 | 0.00 | 92 | 1011.4 |
| 20260507080054 | 3 | 105 | 0.0 | 1.6 | 0.00 | 0.69 | 0.00 | 92 | 1011.4 |
| 20260507074548 | 3 | 0 | 0.0 | 1.6 | 0.00 | 0.86 | 0.00 | 92 | 1011.7 |
| 20260507073204 | 4 | 135 | 0.0 | 3.2 | 0.00 | 0.86 | 0.00 | 92 | 1011.6 |
| 20260507073004 | 4 | 123 | 1.6 | 3.2 | 0.00 | 0.79 | 0.00 | 92 | 1010.8 |
| 20260507072504 | 4 | 130 | 1.6 | 3.2 | 0.00 | 0.79 | 0.00 | 92 | 1010.9 |
| 20260507072004 | 5 | 144 | 0.0 | 1.6 | 0.00 | 0.81 | 0.00 | 92 | 1011.0 |
| 20260507071550 | 4 | 0 | 0.0 | 1.6 | 0.00 | 0.86 | 0.00 | 92 | 1011.8 |
| 20260507071504 | 5 | 295 | 0.0 | 1.6 | 0.00 | 0.84 | 0.00 | 92 | 1011.0 |
| 20260507071004 | 5 | 58 | 0.0 | 1.6 | 0.00 | 0.84 | 0.00 | 92 | 1010.8 |
| 20260507070504 | 5 | 59 | 0.0 | 1.6 | 0.00 | 0.86 | 0.00 | 92 | 1010.8 |
| 20260507070103 | 5 | 0 | 0.0 | 1.6 | 0.00 | 0.86 | 0.00 | 91 | 1011.7 |
| 20260507070009 | 5 | 147 | 0.0 | 1.6 | 0.00 | 0.89 | 0.00 | 92 | 1010.8 |
| 20260507065504 | 5 | 144 | 0.0 | 1.6 | 0.00 | 0.89 | 0.00 | 92 | 1010.8 |
| 20260507065003 | 5 | 61 | 0.0 | 1.6 | 0.00 | 0.91 | 0.00 | 92 | 1010.7 |
| 20260507064555 | 5 | 0 | 0.0 | 1.6 | 0.00 | 1.14 | 0.00 | 91 | 1011.6 |
| 20260507064504 | 5 | 320 | 0.0 | 1.6 | 0.00 | 0.91 | 0.00 | 92 | 1010.7 |
| 20260507063503 | 5 | 161 | 1.6 | 1.6 | 0.00 | 0.99 | 0.00 | 92 | 1010.7 |
| 20260507063044 | 5 | 0 | 0.0 | 3.2 | 0.00 | 1.14 | 0.00 | 91 | 1011.6 |
| 20260507063004 | 5 | 229 | 1.6 | 3.2 | 0.00 | 1.02 | 0.00 | 91 | 1010.7 |
| 20260507062504 | 5 | 326 | 1.6 | 1.6 | 0.00 | 1.04 | 0.00 | 91 | 1010.6 |
| 20260507062003 | 5 | 238 | 0.0 | 1.6 | 0.00 | 1.07 | 0.00 | 91 | 1010.5 |
| 20260507061551 | 5 | 0 | 0.0 | 1.6 | 0.00 | 1.14 | 0.00 | 91 | 1011.5 |
| 20260507061504 | 5 | 97 | 0.0 | 1.6 | 0.00 | 1.09 | 0.00 | 91 | 1010.5 |
| 20260507061003 | 5 | 83 | 0.0 | 1.6 | 0.00 | 1.12 | 0.00 | 91 | 1010.6 |
| 20260507060503 | 5 | 282 | 0.0 | 1.6 | 0.00 | 1.14 | 0.00 | 91 | 1010.7 |
| 20260507060053 | 5 | 152 | 0.0 | 1.6 | 0.00 | 1.14 | 0.00 | 90 | 1011.7 |
| 20260507060004 | 6 | 132 | 1.6 | 1.6 | 0.00 | 1.14 | 0.00 | 91 | 1010.8 |
| 20260507055504 | 6 | 77 | 0.0 | 1.6 | 0.00 | 1.17 | 0.00 | 91 | 1011.0 |
| 20260507055004 | 5 | 254 | 0.0 | 1.6 | 0.00 | 1.19 | 0.00 | 91 | 1011.1 |
| 20260507054609 | 5 | 0 | 0.0 | 1.6 | 0.00 | 1.30 | 0.00 | 90 | 1011.9 |
| 20260507054504 | 6 | 161 | 1.6 | 1.6 | 0.00 | 1.19 | 0.00 | 90 | 1011.0 |
| 20260507054003 | 6 | 176 | 0.0 | 1.6 | 0.00 | 1.19 | 0.00 | 90 | 1011.1 |
| 20260507053504 | 6 | 186 | 0.0 | 1.6 | 0.00 | 1.19 | 0.00 | 90 | 1011.1 |
| 20260507053058 | 5 | 0 | 0.0 | 1.6 | 0.00 | 1.30 | 0.00 | 90 | 1012.1 |
| 20260507053004 | 6 | 154 | 0.0 | 1.6 | 0.00 | 1.19 | 0.00 | 90 | 1011.2 |
| 20260507052504 | 6 | 22 | 0.0 | 1.6 | 0.00 | 1.22 | 0.00 | 90 | 1011.2 |
| 20260507051556 | 6 | 0 | 0.0 | 1.6 | 0.00 | 1.30 | 0.00 | 90 | 1012.0 |
| 20260507051503 | 6 | 101 | 0.0 | 1.6 | 0.00 | 1.24 | 0.00 | 90 | 1011.1 |
| 20260507050504 | 6 | 59 | 0.0 | 1.6 | 0.00 | 1.27 | 0.00 | 90 | 1011.3 |
| 20260507050053 | 6 | 0 | 0.0 | 3.2 | 0.00 | 1.30 | 0.00 | 90 | 1012.1 |
| 20260507050004 | 6 | 49 | 0.0 | 3.2 | 0.00 | 1.30 | 0.00 | 91 | 1011.3 |
| 20260507045503 | 6 | 115 | 0.0 | 3.2 | 0.00 | 1.32 | 0.00 | 90 | 1011.3 |
| 20260507045004 | 6 | 112 | 0.0 | 3.2 | 0.00 | 1.35 | 0.00 | 91 | 1011.3 |
| 20260507044556 | 6 | 0 | 0.0 | 4.8 | 0.00 | 1.42 | 0.00 | 90 | 1012.2 |
| 20260507044503 | 6 | 231 | 0.0 | 4.8 | 0.00 | 1.35 | 0.00 | 91 | 1011.3 |
| 20260507044004 | 6 | 83 | 0.0 | 3.2 | 0.00 | 1.35 | 0.00 | 91 | 1011.2 |
| 20260507043504 | 6 | 201 | 0.0 | 3.2 | 0.00 | 1.35 | 0.00 | 91 | 1011.2 |
| 20260507043044 | 6 | 250 | 0.0 | 3.2 | 0.00 | 1.42 | 0.00 | 91 | 1012.1 |
| 20260507042504 | 6 | 280 | 0.0 | 3.2 | 0.00 | 1.37 | 0.00 | 92 | 1011.1 |
| 20260507042003 | 6 | 210 | 0.0 | 3.2 | 0.00 | 1.37 | 0.00 | 92 | 1011.1 |
| 20260507041601 | 6 | 193 | 0.0 | 6.4 | 0.00 | 1.42 | 0.00 | 92 | 1012.1 |
| 20260507041503 | 6 | 217 | 1.6 | 4.8 | 0.00 | 1.40 | 0.00 | 92 | 1011.2 |
| 20260507041004 | 6 | 226 | 3.2 | 4.8 | 0.00 | 1.40 | 0.00 | 92 | 1011.0 |
| 20260507040504 | 6 | 245 | 1.6 | 3.2 | 0.00 | 1.40 | 0.00 | 93 | 1011.0 |
| 20260507040053 | 6 | 0 | 0.0 | 4.8 | 0.00 | 1.42 | 0.00 | 92 | 1011.9 |
| 20260507035504 | 6 | 226 | 1.6 | 3.2 | 0.00 | 1.42 | 1.42 | 93 | 1011.0 |
| 20260507035003 | 6 | 200 | 1.6 | 3.2 | 0.00 | 1.45 | 1.42 | 93 | 1010.9 |
| 20260507034546 | 6 | 257 | 0.0 | 3.2 | 0.00 | 1.52 | 1.42 | 93 | 1011.9 |
| 20260507034503 | 6 | 227 | 1.6 | 3.2 | 0.00 | 1.45 | 1.42 | 93 | 1011.0 |
| 20260507034004 | 6 | 293 | 1.6 | 3.2 | 0.00 | 1.47 | 1.42 | 93 | 1010.9 |
| 20260507033048 | 6 | 0 | 0.0 | 3.2 | 0.00 | 1.52 | 1.42 | 93 | 1011.9 |
| 20260507033003 | 6 | 169 | 1.6 | 3.2 | 0.00 | 1.50 | 1.42 | 93 | 1010.9 |
| 20260507032504 | 6 | 227 | 0.0 | 1.6 | 0.00 | 1.50 | 1.42 | 93 | 1010.8 |
| 20260507032004 | 6 | 332 | 1.6 | 4.8 | 0.00 | 1.50 | 1.42 | 93 | 1010.8 |
| 20260507031550 | 6 | 0 | 0.0 | 3.2 | 0.00 | 1.52 | 1.42 | 93 | 1011.7 |
| 20260507031004 | 6 | 25 | 1.6 | 3.2 | 0.00 | 1.50 | 1.42 | 93 | 1010.8 |
| 20260507030504 | 6 | 236 | 1.6 | 3.2 | 0.00 | 1.52 | 1.42 | 93 | 1010.8 |
| 20260507030051 | 6 | 0 | 0.0 | 1.6 | 0.00 | 1.52 | 1.42 | 92 | 1011.7 |
| 20260507030003 | 6 | 300 | 0.0 | 1.6 | 0.00 | 1.52 | 1.42 | 93 | 1010.8 |
| 20260507025504 | 6 | 98 | 0.0 | 1.6 | 0.00 | 1.52 | 1.42 | 92 | 1010.7 |
| 20260507025004 | 6 | 156 | 1.6 | 3.2 | 0.00 | 1.52 | 1.42 | 92 | 1010.6 |
| 20260507024553 | 6 | 0 | 0.0 | 3.2 | 0.00 | 1.55 | 1.42 | 92 | 1011.6 |
| 20260507024504 | 6 | 118 | 0.0 | 3.2 | 0.00 | 1.52 | 1.42 | 92 | 1010.7 |
| 20260507023505 | 6 | 233 | 0.0 | 3.2 | 0.00 | 1.52 | 1.42 | 92 | 1010.7 |
| 20260507023048 | 6 | 0 | 0.0 | 3.2 | 0.00 | 1.55 | 1.42 | 92 | 1011.8 |
| 20260507023004 | 6 | 129 | 0.0 | 3.2 | 0.00 | 1.55 | 1.42 | 92 | 1010.7 |
| 20260507022504 | 6 | 212 | 1.6 | 3.2 | 0.00 | 1.55 | 1.42 | 92 | 1010.7 |
| 20260507022003 | 6 | 176 | 0.0 | 3.2 | 0.00 | 1.55 | 1.42 | 92 | 1010.7 |
| 20260507021606 | 6 | 178 | 0.0 | 3.2 | 0.00 | 1.55 | 1.42 | 92 | 1011.6 |
| 20260507021504 | 6 | 175 | 0.0 | 1.6 | 0.00 | 1.55 | 1.42 | 92 | 1010.7 |
| 20260507021004 | 6 | 189 | 0.0 | 3.2 | 0.00 | 1.55 | 1.42 | 92 | 1010.8 |
| 20260507020503 | 6 | 156 | 1.6 | 3.2 | 0.00 | 1.55 | 1.42 | 92 | 1010.8 |
| 20260507020107 | 6 | 178 | 0.0 | 3.2 | 0.00 | 1.55 | 1.42 | 91 | 1011.9 |
| 20260507015504 | 6 | 304 | 1.6 | 1.6 | 0.00 | 1.57 | 1.42 | 92 | 1010.9 |
| 20260507014618 | 6 | 0 | 0.0 | 3.2 | 0.00 | 1.65 | 1.42 | 91 | 1011.8 |
| 20260507014504 | 6 | 274 | 0.0 | 3.2 | 0.00 | 1.60 | 1.42 | 92 | 1010.8 |
| 20260507014003 | 6 | 328 | 0.0 | 1.6 | 0.00 | 1.60 | 1.42 | 91 | 1010.7 |
| 20260507013503 | 6 | 27 | 0.0 | 3.2 | 0.00 | 1.63 | 1.42 | 91 | 1010.7 |
| 20260507013051 | 6 | 56 | 0.0 | 8.0 | 0.00 | 1.65 | 1.42 | 91 | 1011.7 |
| 20260507013004 | 6 | 38 | 1.6 | 3.2 | 0.00 | 1.63 | 1.42 | 92 | 1010.7 |
| 20260507012503 | 6 | 334 | 1.6 | 8.0 | 0.00 | 1.63 | 1.42 | 91 | 1010.8 |
| 20260507012004 | 6 | 339 | 3.2 | 4.8 | 0.03 | 1.63 | 1.42 | 91 | 1010.9 |
| 20260507011553 | 6 | 0 | 1.6 | 8.0 | 0.03 | 1.65 | 1.42 | 91 | 1011.8 |
| 20260507010503 | 7 | 350 | 3.2 | 4.8 | 0.08 | 1.65 | 1.42 | 92 | 1010.7 |
| 20260507010050 | 6 | 338 | 3.2 | 8.0 | 0.08 | 1.65 | 1.42 | 91 | 1011.5 |
| 20260507010004 | 7 | 340 | 3.2 | 8.0 | 0.08 | 1.65 | 1.42 | 92 | 1010.7 |
| 20260507005503 | 7 | 347 | 3.2 | 4.8 | 0.10 | 1.65 | 1.42 | 92 | 1010.6 |
| 20260507005003 | 7 | 358 | 3.2 | 9.7 | 0.10 | 1.65 | 1.42 | 92 | 1010.3 |
| 20260507004546 | 6 | 327 | 3.2 | 6.4 | 0.10 | 1.70 | 1.42 | 91 | 1011.1 |
| 20260507004003 | 7 | 12 | 1.6 | 4.8 | 0.10 | 1.65 | 1.42 | 91 | 1009.8 |
| 20260507003503 | 7 | 4 | 1.6 | 4.8 | 0.13 | 1.65 | 1.42 | 91 | 1009.6 |
| 20260507003049 | 7 | 32 | 1.6 | 8.0 | 0.15 | 1.70 | 1.42 | 90 | 1010.5 |
| 20260507003004 | 7 | 353 | 1.6 | 4.8 | 0.15 | 1.65 | 1.42 | 91 | 1009.6 |
| 20260507002505 | 7 | 2 | 3.2 | 4.8 | 0.18 | 1.65 | 1.42 | 90 | 1009.8 |
| 20260507002004 | 7 | 33 | 3.2 | 4.8 | 0.15 | 1.63 | 1.40 | 90 | 1009.8 |
| 20260507001601 | 7 | 342 | 3.2 | 12.9 | 0.15 | 1.68 | 1.40 | 89 | 1010.8 |
| 20260507001503 | 7 | 5 | 3.2 | 12.9 | 0.15 | 1.65 | 1.40 | 90 | 1009.8 |
| 20260507001004 | 8 | 341 | 3.2 | 12.9 | 0.13 | 1.63 | 1.37 | 90 | 1009.8 |
| 20260507000503 | 8 | 326 | 4.8 | 4.8 | 0.10 | 1.60 | 1.35 | 91 | 1009.5 |
| 20260507000118 | 8 | 0 | 0.0 | 4.8 | 0.10 | 1.63 | 1.32 | 90 | 1010.0 |
| 20260507000004 | 8 | 355 | 0.0 | 4.8 | 0.10 | 1.63 | 1.35 | 91 | 1009.1 |
| 20260506235503 | 8 | 60 | 1.6 | 3.2 | 0.08 | 1.60 | 1.32 | 90 | 1009.1 |
| 20260506235003 | 8 | 188 | 1.6 | 4.8 | 0.08 | 1.60 | 1.32 | 90 | 1009.2 |
| 20260506234610 | 8 | 201 | 0.0 | 3.2 | 0.08 | 1.70 | 1.32 | 89 | 1010.1 |
| 20260506234503 | 8 | 213 | 0.0 | 3.2 | 0.08 | 1.60 | 1.32 | 89 | 1009.1 |
| 20260506234004 | 8 | 314 | 1.6 | 3.2 | 0.08 | 1.60 | 1.32 | 88 | 1009.1 |
| 20260506233504 | 9 | 338 | 1.6 | 3.2 | 0.05 | 1.60 | 1.30 | 87 | 1008.9 |
| 20260506233051 | 9 | 32 | 1.6 | 6.4 | 0.03 | 1.65 | 1.27 | 86 | 1009.7 |
| 20260506232503 | 10 | 337 | 1.6 | 3.2 | 0.00 | 1.57 | 1.24 | 85 | 1008.7 |
| 20260506232004 | 10 | 340 | 0.0 | 3.2 | 0.00 | 1.57 | 1.24 | 84 | 1008.6 |
| 20260506231551 | 10 | 1 | 1.6 | 3.2 | 0.00 | 1.63 | 1.24 | 81 | 1009.4 |
| 20260506231504 | 10 | 331 | 1.6 | 3.2 | 0.00 | 1.60 | 1.24 | 81 | 1008.6 |
| 20260506231004 | 10 | 28 | 1.6 | 3.2 | 0.00 | 1.60 | 1.24 | 81 | 1008.5 |
| 20260506230003 | 10 | 49 | 0.0 | 1.6 | 0.00 | 1.63 | 1.24 | 79 | 1008.4 |
| 20260506225504 | 10 | 98 | 0.0 | 1.6 | 0.00 | 1.65 | 1.24 | 79 | 1008.5 |
| 20260506225004 | 10 | 62 | 0.0 | 1.6 | 0.00 | 1.68 | 1.24 | 78 | 1008.5 |
| 20260506224551 | 10 | 1 | 0.0 | 3.2 | 0.00 | 1.75 | 1.24 | 78 | 1009.2 |
| 20260506224504 | 10 | 36 | 1.6 | 3.2 | 0.00 | 1.70 | 1.24 | 78 | 1008.4 |
| 20260506224003 | 10 | 340 | 0.0 | 1.6 | 0.00 | 1.75 | 1.24 | 77 | 1008.4 |
| 20260506223503 | 10 | 292 | 0.0 | 3.2 | 0.00 | 1.75 | 1.24 | 77 | 1008.4 |
| 20260506223050 | 10 | 108 | 0.0 | 3.2 | 0.00 | 1.75 | 1.24 | 77 | 1009.1 |
| 20260506223004 | 10 | 24 | 1.6 | 3.2 | 0.00 | 1.75 | 1.24 | 77 | 1008.3 |
| 20260506222504 | 10 | 109 | 0.0 | 1.6 | 0.00 | 1.75 | 1.24 | 78 | 1008.3 |
| 20260506222004 | 10 | 72 | 0.0 | 1.6 | 0.00 | 1.75 | 1.24 | 79 | 1008.2 |
| 20260506221559 | 10 | 0 | 0.0 | 1.6 | 0.00 | 1.75 | 1.24 | 78 | 1009.0 |
| 20260506221504 | 10 | 319 | 0.0 | 1.6 | 0.00 | 1.75 | 1.24 | 79 | 1008.2 |
| 20260506221004 | 10 | 88 | 0.0 | 1.6 | 0.00 | 1.75 | 1.24 | 77 | 1008.1 |
| 20260506220504 | 10 | 32 | 0.0 | 1.6 | 0.00 | 1.75 | 1.24 | 79 | 1008.2 |
| 20260506220049 | 10 | 0 | 0.0 | 3.2 | 0.00 | 1.75 | 1.24 | 77 | 1009.0 |
| 20260506220003 | 10 | 32 | 1.6 | 3.2 | 0.00 | 1.75 | 1.24 | 77 | 1008.2 |
| 20260506215005 | 10 | 64 | 1.6 | 4.8 | 0.00 | 1.75 | 1.24 | 77 | 1008.0 |
| 20260506214551 | 10 | 46 | 0.0 | 3.2 | 0.00 | 1.75 | 1.24 | 77 | 1008.8 |
| 20260506214504 | 10 | 69 | 1.6 | 3.2 | 0.00 | 1.75 | 1.24 | 78 | 1007.9 |
| 20260506214004 | 10 | 59 | 1.6 | 3.2 | 0.00 | 1.75 | 1.24 | 77 | 1008.1 |
| 20260506213503 | 10 | 98 | 1.6 | 3.2 | 0.00 | 1.75 | 1.24 | 77 | 1008.1 |
| 20260506213058 | 10 | 89 | 0.0 | 4.8 | 0.00 | 1.75 | 1.24 | 77 | 1009.0 |
| 20260506213003 | 10 | 131 | 1.6 | 3.2 | 0.00 | 1.75 | 1.24 | 77 | 1008.1 |
| 20260506212504 | 10 | 190 | 1.6 | 3.2 | 0.00 | 1.75 | 1.24 | 75 | 1008.1 |
| 20260506211554 | 10 | 234 | 0.0 | 4.8 | 0.00 | 1.75 | 1.24 | 76 | 1009.0 |
| 20260506211504 | 10 | 292 | 1.6 | 3.2 | 0.00 | 1.75 | 1.24 | 76 | 1008.1 |
| 20260506210504 | 10 | 229 | 0.0 | 4.8 | 0.00 | 1.75 | 1.24 | 76 | 1008.2 |
| 20260506210050 | 10 | 0 | 1.6 | 4.8 | 0.00 | 1.75 | 1.24 | 75 | 1009.1 |
| 20260506210003 | 10 | 330 | 1.6 | 4.8 | 0.00 | 1.75 | 1.24 | 76 | 1008.2 |
| 20260506205503 | 10 | 219 | 1.6 | 3.2 | 0.00 | 1.75 | 1.24 | 76 | 1008.2 |
| 20260506205004 | 10 | 324 | 1.6 | 4.8 | 0.00 | 1.75 | 1.24 | 75 | 1008.2 |
| 20260506204547 | 10 | 258 | 0.0 | 3.2 | 0.00 | 1.75 | 1.24 | 75 | 1009.0 |
| 20260506204504 | 10 | 225 | 1.6 | 3.2 | 0.00 | 1.75 | 1.24 | 76 | 1008.1 |
| 20260506204004 | 10 | 111 | 1.6 | 3.2 | 0.00 | 1.75 | 1.24 | 77 | 1008.1 |
| 20260506203052 | 9 | 108 | 0.0 | 3.2 | 0.00 | 1.75 | 1.24 | 76 | 1008.9 |
| 20260506203003 | 10 | 338 | 1.6 | 3.2 | 0.00 | 1.75 | 1.24 | 77 | 1008.2 |
| 20260506202504 | 10 | 38 | 1.6 | 3.2 | 0.00 | 1.75 | 1.24 | 77 | 1008.1 |
| 20260506202003 | 10 | 359 | 1.6 | 3.2 | 0.00 | 1.75 | 1.24 | 77 | 1008.1 |
| 20260506201550 | 9 | 28 | 0.0 | 3.2 | 0.00 | 1.75 | 1.24 | 78 | 1009.0 |
| 20260506201503 | 10 | 38 | 1.6 | 3.2 | 0.00 | 1.75 | 1.24 | 78 | 1008.1 |
| 20260506201004 | 10 | 25 | 1.6 | 3.2 | 0.00 | 1.75 | 1.24 | 78 | 1008.1 |
| 20260506200051 | 9 | 20 | 0.0 | 4.8 | 0.00 | 1.75 | 1.24 | 79 | 1009.1 |
| 20260506200004 | 9 | 59 | 1.6 | 4.8 | 0.00 | 1.75 | 1.24 | 80 | 1008.3 |
| 20260506195503 | 9 | 6 | 1.6 | 3.2 | 0.00 | 1.75 | 1.24 | 79 | 1008.3 |
| 20260506195003 | 9 | 209 | 3.2 | 4.8 | 0.00 | 1.75 | 1.24 | 79 | 1008.2 |
| 20260506194554 | 8 | 0 | 0.0 | 4.8 | 0.00 | 1.75 | 1.24 | 79 | 1009.1 |
| 20260506194503 | 9 | 358 | 1.6 | 4.8 | 0.00 | 1.75 | 1.24 | 79 | 1008.1 |
| 20260506194004 | 9 | 337 | 3.2 | 4.8 | 0.00 | 1.75 | 1.24 | 79 | 1008.1 |
| 20260506193503 | 9 | 30 | 1.6 | 4.8 | 0.00 | 1.75 | 1.24 | 79 | 1008.1 |
| 20260506193052 | 8 | 314 | 1.6 | 4.8 | 0.00 | 1.75 | 1.24 | 80 | 1009.0 |
| 20260506193004 | 9 | 338 | 1.6 | 4.8 | 0.00 | 1.75 | 1.24 | 80 | 1008.2 |
| 20260506192504 | 9 | 335 | 3.2 | 4.8 | 0.00 | 1.75 | 1.24 | 80 | 1008.1 |
| 20260506192004 | 8 | 34 | 3.2 | 4.8 | 0.00 | 1.75 | 1.24 | 83 | 1008.1 |
| 20260506191558 | 8 | 344 | 0.0 | 6.4 | 0.00 | 1.75 | 1.24 | 82 | 1009.0 |
| 20260506191004 | 8 | 342 | 3.2 | 4.8 | 0.00 | 1.75 | 1.24 | 81 | 1008.1 |
| 20260506190503 | 9 | 346 | 1.6 | 4.8 | 0.00 | 1.75 | 1.24 | 83 | 1008.2 |
| 20260506190053 | 8 | 314 | 1.6 | 6.4 | 0.00 | 1.75 | 1.24 | 81 | 1009.1 |
| 20260506190005 | 9 | 329 | 3.2 | 4.8 | 0.00 | 1.75 | 1.24 | 83 | 1008.2 |
| 20260506185504 | 8 | 314 | 1.6 | 3.2 | 0.00 | 1.75 | 1.24 | 85 | 1008.2 |
| 20260506185004 | 8 | 346 | 1.6 | 3.2 | 0.00 | 1.75 | 1.24 | 86 | 1008.3 |
| 20260506184547 | 8 | 72 | 1.6 | 8.0 | 0.00 | 1.75 | 1.24 | 84 | 1009.2 |
| 20260506184504 | 8 | 350 | 3.2 | 8.0 | 0.00 | 1.75 | 1.24 | 85 | 1008.2 |
| 20260506184003 | 8 | 345 | 1.6 | 4.8 | 0.00 | 1.75 | 1.24 | 87 | 1008.1 |
| 20260506183503 | 8 | 33 | 1.6 | 8.0 | 0.00 | 1.75 | 1.24 | 88 | 1008.1 |
| 20260506183101 | 8 | 342 | 1.6 | 6.4 | 0.00 | 1.75 | 1.24 | 88 | 1009.1 |
| 20260506183004 | 8 | 25 | 3.2 | 4.8 | 0.00 | 1.75 | 1.24 | 90 | 1008.2 |
| 20260506182504 | 8 | 37 | 1.6 | 4.8 | 0.00 | 1.75 | 1.24 | 88 | 1008.2 |
| 20260506182004 | 8 | 316 | 3.2 | 4.8 | 0.00 | 1.75 | 1.24 | 88 | 1008.1 |
| 20260506181602 | 7 | 347 | 1.6 | 6.4 | 0.00 | 1.75 | 1.24 | 88 | 1009.1 |
| 20260506181503 | 8 | 324 | 3.2 | 4.8 | 0.00 | 1.75 | 1.24 | 89 | 1008.1 |
| 20260506181004 | 8 | 336 | 1.6 | 4.8 | 0.00 | 1.75 | 1.24 | 89 | 1008.3 |
| 20260506180503 | 8 | 18 | 1.6 | 4.8 | 0.00 | 1.75 | 1.24 | 90 | 1008.1 |
| 20260506180052 | 7 | 28 | 1.6 | 6.4 | 0.00 | 1.75 | 1.24 | 89 | 1009.3 |
| 20260506175003 | 8 | 334 | 3.2 | 4.8 | 0.00 | 1.75 | 1.24 | 89 | 1008.2 |
| 20260506174548 | 8 | 0 | 0.0 | 4.8 | 0.00 | 1.75 | 1.24 | 89 | 1009.0 |
| 20260506174503 | 8 | 20 | 1.6 | 4.8 | 0.00 | 1.75 | 1.24 | 89 | 1008.0 |
| 20260506173119 | 8 | 295 | 1.6 | 6.4 | 0.00 | 1.75 | 1.24 | 88 | 1008.8 |
| 20260506172504 | 8 | 29 | 3.2 | 4.8 | 0.00 | 1.75 | 1.24 | 88 | 1007.7 |
| 20260506172004 | 8 | 68 | 1.6 | 4.8 | 0.00 | 1.75 | 1.24 | 90 | 1007.6 |
| 20260506171546 | 8 | 72 | 1.6 | 4.8 | 0.00 | 1.75 | 1.24 | 90 | 1008.5 |
| 20260506171004 | 8 | 15 | 1.6 | 4.8 | 0.00 | 1.75 | 1.24 | 90 | 1007.3 |
| 20260506170504 | 8 | 6 | 1.6 | 4.8 | 0.00 | 1.75 | 1.24 | 90 | 1007.3 |
| 20260506170104 | 8 | 63 | 1.6 | 6.4 | 0.00 | 1.75 | 1.24 | 90 | 1008.4 |
| 20260506170004 | 8 | 58 | 1.6 | 4.8 | 0.00 | 1.75 | 1.24 | 91 | 1007.3 |
| 20260506165503 | 8 | 357 | 3.2 | 4.8 | 0.00 | 1.75 | 1.24 | 89 | 1007.4 |
| 20260506165004 | 8 | 72 | 1.6 | 3.2 | 0.00 | 1.75 | 1.24 | 91 | 1007.4 |
| 20260506164551 | 7 | 63 | 1.6 | 6.4 | 0.00 | 1.75 | 1.24 | 91 | 1008.4 |
| 20260506164504 | 8 | 47 | 1.6 | 4.8 | 0.00 | 1.75 | 1.24 | 91 | 1007.4 |
| 20260506164004 | 8 | 324 | 3.2 | 4.8 | 0.00 | 1.75 | 1.24 | 91 | 1007.5 |
| 20260506163503 | 8 | 18 | 1.6 | 4.8 | 0.00 | 1.75 | 1.24 | 91 | 1007.4 |
| 20260506163058 | 7 | 337 | 3.2 | 6.4 | 0.00 | 1.75 | 1.24 | 90 | 1008.3 |
| 20260506162504 | 8 | 17 | 3.2 | 4.8 | 0.00 | 1.75 | 1.24 | 91 | 1007.2 |
| 20260506162004 | 8 | 344 | 3.2 | 4.8 | 0.00 | 1.75 | 1.24 | 92 | 1007.3 |
| 20260506161552 | 7 | 0 | 0.0 | 4.8 | 0.00 | 1.75 | 1.24 | 92 | 1008.4 |
| 20260506161503 | 8 | 1 | 1.6 | 3.2 | 0.00 | 1.75 | 1.24 | 92 | 1007.3 |
| 20260506161004 | 7 | 346 | 1.6 | 4.8 | 0.00 | 1.75 | 1.24 | 92 | 1007.3 |
| 20260506160504 | 7 | 16 | 3.2 | 4.8 | 0.00 | 1.75 | 1.24 | 91 | 1007.3 |
| 20260506160053 | 7 | 346 | 1.6 | 6.4 | 0.00 | 1.75 | 1.24 | 91 | 1008.4 |
| 20260506160004 | 7 | 351 | 1.6 | 4.8 | 0.00 | 1.75 | 1.24 | 92 | 1007.4 |
| 20260506155503 | 7 | 24 | 1.6 | 4.8 | 0.00 | 1.75 | 1.24 | 92 | 1007.5 |
| 20260506155004 | 8 | 351 | 3.2 | 4.8 | 0.00 | 1.75 | 1.24 | 92 | 1007.5 |
| 20260506154609 | 7 | 59 | 0.0 | 4.8 | 0.00 | 1.75 | 1.24 | 92 | 1008.5 |
| 20260506154504 | 8 | 28 | 1.6 | 3.2 | 0.00 | 1.75 | 1.24 | 92 | 1007.4 |
| 20260506154003 | 8 | 15 | 1.6 | 4.8 | 0.00 | 1.75 | 1.24 | 93 | 1007.5 |
| 20260506153503 | 8 | 16 | 1.6 | 4.8 | 0.00 | 1.75 | 1.24 | 93 | 1007.3 |
| 20260506153053 | 7 | 324 | 1.6 | 4.8 | 0.00 | 1.75 | 1.24 | 94 | 1008.3 |
| 20260506153003 | 7 | 43 | 1.6 | 4.8 | 0.00 | 1.75 | 1.24 | 93 | 1007.2 |
| 20260506152503 | 7 | 13 | 1.6 | 3.2 | 0.00 | 1.75 | 1.24 | 93 | 1007.1 |
| 20260506152004 | 7 | 18 | 1.6 | 8.0 | 0.00 | 1.75 | 1.24 | 93 | 1007.3 |
| 20260506151550 | 7 | 46 | 3.2 | 6.4 | 0.00 | 1.75 | 1.24 | 92 | 1008.2 |
| 20260506150503 | 7 | 37 | 1.6 | 3.2 | 0.03 | 1.75 | 1.24 | 93 | 1007.3 |
| 20260506150048 | 7 | 1 | 0.0 | 4.8 | 0.03 | 1.75 | 1.24 | 93 | 1008.4 |
| 20260506145504 | 7 | 14 | 1.6 | 4.8 | 0.03 | 1.75 | 1.24 | 93 | 1007.2 |
| 20260506145004 | 7 | 19 | 1.6 | 4.8 | 0.03 | 1.75 | 1.24 | 94 | 1007.0 |
| 20260506144553 | 7 | 53 | 1.6 | 4.8 | 0.03 | 1.75 | 1.24 | 93 | 1008.1 |
| 20260506144503 | 7 | 39 | 1.6 | 4.8 | 0.03 | 1.75 | 1.24 | 93 | 1007.0 |
| 20260506144004 | 7 | 8 | 1.6 | 3.2 | 0.03 | 1.75 | 1.24 | 93 | 1007.0 |
| 20260506143503 | 7 | 16 | 1.6 | 4.8 | 0.03 | 1.75 | 1.24 | 93 | 1006.9 |
| 20260506143049 | 7 | 314 | 1.6 | 6.4 | 0.03 | 1.75 | 1.24 | 92 | 1007.9 |
| 20260506143003 | 7 | 351 | 3.2 | 4.8 | 0.03 | 1.75 | 1.24 | 93 | 1007.0 |
| 20260506142504 | 7 | 72 | 1.6 | 3.2 | 0.05 | 1.75 | 1.24 | 94 | 1006.8 |
| 20260506142004 | 7 | 8 | 3.2 | 4.8 | 0.05 | 1.75 | 1.24 | 94 | 1006.8 |
| 20260506141550 | 7 | 314 | 0.0 | 3.2 | 0.05 | 1.75 | 1.24 | 93 | 1007.9 |
| 20260506141503 | 7 | 357 | 1.6 | 3.2 | 0.05 | 1.75 | 1.24 | 94 | 1006.8 |
| 20260506141004 | 7 | 17 | 1.6 | 3.2 | 0.05 | 1.75 | 1.24 | 94 | 1006.7 |
| 20260506140049 | 7 | 56 | 0.0 | 4.8 | 0.03 | 1.73 | 1.22 | 93 | 1007.7 |
| 20260506135003 | 7 | 47 | 3.2 | 4.8 | 0.03 | 1.73 | 1.22 | 94 | 1006.8 |
| 20260506134545 | 7 | 340 | 1.6 | 4.8 | 0.03 | 1.73 | 1.22 | 93 | 1008.0 |
| 20260506134504 | 7 | 67 | 1.6 | 4.8 | 0.03 | 1.73 | 1.22 | 94 | 1006.9 |
| 20260506134004 | 7 | 15 | 1.6 | 4.8 | 0.03 | 1.73 | 1.22 | 93 | 1006.9 |
| 20260506133503 | 7 | 10 | 1.6 | 3.2 | 0.03 | 1.73 | 1.22 | 94 | 1006.9 |
| 20260506133105 | 7 | 0 | 1.6 | 3.2 | 0.03 | 1.73 | 1.22 | 93 | 1007.9 |
| 20260506133003 | 7 | 10 | 1.6 | 3.2 | 0.03 | 1.73 | 1.22 | 94 | 1006.8 |
| 20260506132004 | 7 | 83 | 1.6 | 3.2 | 0.00 | 1.70 | 1.19 | 94 | 1006.7 |
| 20260506131547 | 7 | 269 | 0.0 | 4.8 | 0.03 | 1.70 | 1.19 | 93 | 1007.8 |
| 20260506131503 | 7 | 316 | 1.6 | 3.2 | 0.03 | 1.70 | 1.19 | 94 | 1006.6 |
| 20260506131004 | 7 | 285 | 1.6 | 4.8 | 0.03 | 1.70 | 1.19 | 94 | 1006.5 |
| 20260506130503 | 7 | 56 | 1.6 | 4.8 | 0.03 | 1.70 | 1.19 | 94 | 1006.6 |
| 20260506130105 | 7 | 89 | 0.0 | 3.2 | 0.05 | 1.70 | 1.19 | 94 | 1007.7 |
| 20260506130003 | 7 | 67 | 1.6 | 3.2 | 0.05 | 1.70 | 1.19 | 94 | 1006.6 |
| 20260506125504 | 7 | 354 | 0.0 | 3.2 | 0.05 | 1.70 | 1.19 | 94 | 1006.5 |
| 20260506125004 | 7 | 39 | 1.6 | 3.2 | 0.05 | 1.70 | 1.19 | 94 | 1006.5 |
| 20260506124552 | 6 | 1 | 1.6 | 6.4 | 0.05 | 1.70 | 1.19 | 94 | 1007.7 |
| 20260506124503 | 7 | 62 | 1.6 | 4.8 | 0.05 | 1.70 | 1.19 | 94 | 1006.5 |
| 20260506124004 | 7 | 57 | 1.6 | 3.2 | 0.05 | 1.70 | 1.19 | 94 | 1006.7 |
| 20260506123504 | 7 | 7 | 1.6 | 3.2 | 0.05 | 1.70 | 1.19 | 94 | 1006.8 |
| 20260506123049 | 7 | 46 | 0.0 | 3.2 | 0.05 | 1.70 | 1.19 | 93 | 1007.9 |
| 20260506123003 | 7 | 23 | 1.6 | 3.2 | 0.05 | 1.70 | 1.19 | 94 | 1006.8 |
| 20260506122504 | 7 | 51 | 0.0 | 3.2 | 0.08 | 1.70 | 1.19 | 94 | 1006.7 |
| 20260506122004 | 7 | 36 | 1.6 | 3.2 | 0.08 | 1.70 | 1.19 | 94 | 1006.6 |
| 20260506121547 | 7 | 306 | 1.6 | 4.8 | 0.05 | 1.68 | 1.17 | 94 | 1007.7 |
| 20260506121504 | 7 | 50 | 1.6 | 4.8 | 0.05 | 1.68 | 1.17 | 94 | 1006.7 |
| 20260506121003 | 7 | 14 | 1.6 | 4.8 | 0.05 | 1.68 | 1.17 | 94 | 1006.8 |
| 20260506120503 | 7 | 55 | 1.6 | 3.2 | 0.05 | 1.68 | 1.17 | 94 | 1006.7 |
| 20260506120052 | 6 | 117 | 0.0 | 3.2 | 0.03 | 1.65 | 1.14 | 94 | 1008.0 |
| 20260506120004 | 7 | 41 | 1.6 | 3.2 | 0.05 | 1.65 | 1.14 | 94 | 1006.9 |
| 20260506115505 | 7 | 27 | 1.6 | 3.2 | 0.05 | 1.65 | 1.14 | 94 | 1006.8 |
| 20260506115003 | 7 | 323 | 1.6 | 3.2 | 0.05 | 1.65 | 1.14 | 94 | 1006.8 |
| 20260506114551 | 6 | 20 | 0.0 | 4.8 | 0.05 | 1.65 | 1.14 | 94 | 1007.8 |
| 20260506114503 | 7 | 1 | 1.6 | 3.2 | 0.05 | 1.65 | 1.14 | 94 | 1006.7 |
| 20260506114003 | 7 | 61 | 1.6 | 3.2 | 0.05 | 1.65 | 1.14 | 94 | 1006.7 |
| 20260506113048 | 6 | 1 | 1.6 | 11.3 | 0.08 | 1.65 | 1.14 | 93 | 1007.5 |
| 20260506113004 | 7 | 44 | 3.2 | 11.3 | 0.08 | 1.65 | 1.14 | 94 | 1006.3 |
| 20260506112504 | 7 | 23 | 1.6 | 4.8 | 0.05 | 1.63 | 1.12 | 94 | 1006.3 |
| 20260506112003 | 7 | 38 | 1.6 | 4.8 | 0.08 | 1.63 | 1.12 | 94 | 1006.3 |
| 20260506111551 | 6 | 72 | 0.0 | 4.8 | 0.08 | 1.63 | 1.12 | 94 | 1007.4 |
| 20260506111503 | 7 | 20 | 1.6 | 4.8 | 0.08 | 1.63 | 1.12 | 94 | 1006.2 |
| 20260506111004 | 7 | 77 | 1.6 | 3.2 | 0.10 | 1.63 | 1.12 | 94 | 1006.3 |
| 20260506110052 | 7 | 9 | 3.2 | 6.4 | 0.13 | 1.63 | 1.12 | 93 | 1007.5 |
| 20260506110003 | 7 | 35 | 3.2 | 4.8 | 0.10 | 1.60 | 1.09 | 94 | 1006.2 |
| 20260506105503 | 7 | 69 | 1.6 | 3.2 | 0.10 | 1.60 | 1.09 | 94 | 1006.2 |
| 20260506105003 | 7 | 40 | 1.6 | 4.8 | 0.10 | 1.60 | 1.09 | 94 | 1006.3 |
| 20260506104610 | 7 | 51 | 0.0 | 3.2 | 0.13 | 1.60 | 1.09 | 94 | 1007.6 |
| 20260506104504 | 7 | 38 | 1.6 | 3.2 | 0.13 | 1.60 | 1.09 | 94 | 1006.5 |
| 20260506104004 | 7 | 61 | 1.6 | 3.2 | 0.15 | 1.60 | 1.09 | 94 | 1006.5 |
| 20260506103503 | 7 | 79 | 1.6 | 3.2 | 0.13 | 1.57 | 1.07 | 94 | 1006.5 |
| 20260506103043 | 7 | 46 | 0.0 | 6.4 | 0.13 | 1.57 | 1.07 | 94 | 1007.8 |
| 20260506103003 | 7 | 29 | 1.6 | 4.8 | 0.15 | 1.57 | 1.07 | 94 | 1006.5 |
| 20260506102004 | 7 | 66 | 1.6 | 3.2 | 0.13 | 1.55 | 1.04 | 94 | 1006.5 |
| 20260506101550 | 7 | 35 | 1.6 | 3.2 | 0.13 | 1.55 | 1.04 | 94 | 1007.9 |
| 20260506101004 | 7 | 61 | 1.6 | 3.2 | 0.13 | 1.52 | 1.02 | 94 | 1006.7 |
| 20260506100504 | 7 | 295 | 1.6 | 4.8 | 0.13 | 1.52 | 1.02 | 94 | 1006.8 |
| 20260506100045 | 7 | 0 | 0.0 | 4.8 | 0.10 | 1.47 | 0.99 | 94 | 1007.7 |
| 20260506100004 | 7 | 17 | 1.6 | 3.2 | 0.10 | 1.50 | 0.99 | 94 | 1006.4 |
| 20260506095004 | 7 | 349 | 3.2 | 4.8 | 0.10 | 1.50 | 0.99 | 94 | 1006.5 |
| 20260506094547 | 7 | 340 | 1.6 | 3.2 | 0.08 | 1.47 | 0.97 | 94 | 1007.6 |
| 20260506094503 | 7 | 28 | 1.6 | 3.2 | 0.08 | 1.47 | 0.97 | 94 | 1006.4 |
| 20260506094004 | 7 | 352 | 1.6 | 3.2 | 0.08 | 1.45 | 0.94 | 94 | 1006.6 |
| 20260506093504 | 7 | 27 | 0.0 | 1.6 | 0.10 | 1.45 | 0.94 | 94 | 1006.5 |
| 20260506093046 | 7 | 46 | 0.0 | 3.2 | 0.10 | 1.45 | 0.94 | 93 | 1007.6 |
| 20260506093004 | 7 | 347 | 1.6 | 3.2 | 0.08 | 1.42 | 0.91 | 94 | 1006.3 |
| 20260506092504 | 7 | 30 | 1.6 | 3.2 | 0.10 | 1.42 | 0.91 | 94 | 1006.4 |
| 20260506092004 | 7 | 50 | 3.2 | 4.8 | 0.10 | 1.42 | 0.91 | 94 | 1006.4 |